Location: Beverley
(50.2667°N, 107.9667°W)
Time: 16:51:13
(UTC+00:00)

Envisat - Visible Passes

Search period start: 21 January 2022 00:00
Search period end: 31 January 2022 00:00
Orbit: 764 x 766 km, 98.2° (Epoch: 20 January)

Date Brightness Start Highest point End Pass type
(mag) Time Alt. Az. Time Alt. Az. Time Alt. Az.
21 Jan 5.8 00:24:01 10° SW 00:27:47 21° W 00:31:34 10° NW visible
21 Jan 5.6 10:48:35 10° NE 10:51:37 16° E 10:54:39 10° SE visible
21 Jan 2.8 12:26:12 10° NNE 12:31:19 83° WNW 12:36:24 10° SSW visible
21 Jan 4.5 14:06:37 10° NNW 14:09:35 16° NW 14:12:32 10° W visible
22 Jan 3.8 11:49:24 10° NNE 11:54:22 50° E 11:59:17 10° S visible
22 Jan 3.8 13:28:52 10° N 13:33:09 28° WNW 13:37:25 10° WSW visible
23 Jan 6.1 00:51:16 10° WSW 00:53:25 13° W 00:55:36 10° WNW visible
23 Jan 5.0 11:13:02 10° NE 11:17:13 25° E 11:21:23 10° SSE visible
23 Jan 3.1 12:51:35 10° N 12:56:32 52° WNW 13:01:26 10° SW visible
24 Jan 5.9 10:37:42 10° ENE 10:39:52 13° E 10:42:00 10° ESE visible
24 Jan 3.0 12:14:35 10° NNE 12:19:43 81° ESE 12:24:48 10° SSW visible
24 Jan 4.3 13:54:41 10° NNW 13:58:09 19° WNW 14:01:36 10° W visible
25 Jan 4.2 11:37:54 10° NNE 11:42:42 40° E 11:47:28 10° SSE visible
25 Jan 3.6 13:17:07 10° N 13:21:39 33° WNW 13:26:10 10° SW visible
26 Jan 5.9 00:38:37 10° SW 00:41:39 16° W 00:44:42 10° NW visible
26 Jan 5.3 11:01:43 10° NE 11:05:30 21° E 11:09:16 10° SE visible
26 Jan 2.9 12:39:56 10° N 12:44:58 64° WNW 12:49:59 10° SSW visible
27 Jan 3.3 12:03:01 10° NNE 12:08:06 66° ESE 12:13:09 10° S visible
27 Jan 4.1 13:42:49 10° N 13:46:41 22° WNW 13:50:33 10° WSW visible
28 Jan 4.6 11:26:27 10° NNE 11:31:02 33° E 11:35:35 10° SSE visible
28 Jan 3.4 13:05:23 10° N 13:10:08 40° WNW 13:14:52 10° SW visible
29 Jan 5.8 00:26:17 10° SW 00:29:55 19° W 00:33:33 10° NW visible
29 Jan 5.6 10:50:32 10° NE 10:53:45 17° E 10:56:59 10° SE visible
29 Jan 2.8 12:28:17 10° NNE 12:33:24 79° WNW 12:38:29 10° SSW visible
29 Jan 4.5 14:08:50 10° NNW 14:11:38 15° NW 14:14:25 10° W visible
30 Jan 3.7 11:51:28 10° NNE 11:56:28 53° E 12:01:25 10° S visible
30 Jan 3.9 13:31:01 10° N 13:35:12 27° WNW 13:39:24 10° WSW visible
